Showing default

MERIDIAN 8, 44453

Orbit data source: Space-Track

MERIDIAN 8, 44453 is a payload satellite owned by VVKO VKS (CIS) in HEO that was launched on Tue, 30 Jul 2019 UTC via a SOYUZ-2-1A launch vehicle from the Plesetsk Missile And Space Complex (PKMTR). Payloads include a variety of satellites, spacecraft, and rockets equipped with specific instruments for various scientific and technological missions. These include communications satellites like Starlink; space stations such as the ISS; scientific satellites like the Hubble; Earth observation satellites from companies like Planet Labs, Umbra, and HawkEye 360; GPS; miniature CubeSats for education and research; and military/defense satellites.

Loading next visibility...
MERIDIAN 8 details
Identifier
44453, 2019-046A
Orbit
HEO
Last TLE update2 days ago
Origin
Flag of CISVVKO VKS (CIS)
ManufacturerResehetnev ISS
MissionPartially operational Defense Communications
Bus & MotorMERIDIAN, Unknown motor
Mass~2,000 kg wet, ~2,000 kg dry
Launch date (UTC)
2019-07-30 (5 years ago)
Launch vehicle
SOYUZ-2-1A
Launch site
Plesetsk Missile And Space Complex (PKMTR)
Object type
Payload
Rocket body
Debris
Shape & HBRBox + 2 Pan, 10 m
Radar Cross Section14.304 m², Large (>1 m²)

Expand to show TLE details & history

TLE from 2 days ago
0 MERIDIAN 8
1 44453U 19046A   24359.38054459  .00000178  00000-0  00000-0 0  9997
2 44453  62.7495 116.3931 6851031 273.5580  16.8821  2.00593728 39513
Epoch: 2024-12-24T09:07Z
Definitive object data (Epoch: 2024-12-24T09:07:59.052Z)
Latitude-0.00002°
Longitude-114.00968°
Altitude7,168.516 km
Speed6.622 km/s
True Right ascension07h 45m 30s
True Declination0° 00' 00"
Sunlit
Object was in daylight at TLE epoch
Visualization TLE readout
Latitude62.77496°
Longitude-23.4162°
Altitude38,218.185 km
Speed1.695 km/s
Apparent Right ascension13h 56m 07s
Apparent Declination66° 22' 38"
Sunlit
Object is in daylight
Visualization observer readout
Local Sidereal Time13:21:38
Azimuth7.628° NNE
Elevation63.096°
Doppler factor1
Orbital elements
Apogee altitude38,372.993 km
Perigee altitude1,984.551 km
Semi-major axis26,556.909 km
Eccentricity0.6851031
Inclination62.7495°
RAAN116.3931°
Arg. of periapsis273.558°
True anomaly86.55175°
Mean anomaly16.8821°
Eccentric anomaly44.29481°
Mean motion0.50151 °/min
BSTARUnknown
Orbital period717.84 mins
Loading maneuver chart data...
Loading historical data...
Loading historical data...
Loading historical data...
Loading historical data...
Loading historical data...
Loading historical data...
Loading historical data...
Other satellites on launch #46 in the year 2019 (2019-07-30 UTC)

MERIDIAN 8 Visibility forecast

Observer location: undefined°, undefined

Span
Click to sort rows by Start time (UTC) header in descending order
Start Az.
Max El. time (UTC)
Max El. Az.
Max El.
End time (UTC)
End Az.
352 mins2024-12-26 13:59:52.331Z7.632° NNE2024-12-26 18:22:52.331Z91.283° ESE44.918°2024-12-26 19:51:52.331Z164.325° S
309 mins2024-12-27 08:50:52.331Z194.909° SSW2024-12-27 10:01:52.331Z4.248° NNE45°2024-12-27 13:59:52.331Z7.774° NNE
|